| time (UTC) | temp F | wind direction | speed MPH | gust MPH | rain 1hr in | rain 24hr in | rain mn in | humidity % | barometer mb |
| 20260901063021 | 60 | 229 | 1.0 | 5.0 | 0.00 | 0.00 | 0.00 | 43 | 1006.9 |
| 20260901061514 | 62 | 209 | 4.0 | 8.0 | 0.00 | 0.00 | 0.00 | 41 | 1006.8 |
| 20260901060010 | 64 | 243 | 3.0 | 10.0 | 0.00 | 0.00 | 0.00 | 39 | 1007.0 |
| 20260901054509 | 65 | 223 | 5.0 | 9.0 | 0.00 | 0.00 | 0.00 | 38 | 1006.9 |
| 20260901053008 | 63 | 248 | 1.0 | 7.0 | 0.00 | 0.00 | 0.00 | 39 | 1006.8 |
| 20260901051502 | 65 | 53 | 4.0 | 6.0 | 0.00 | 0.00 | 0.00 | 36 | 1006.4 |
| 20260901050059 | 68 | 76 | 0.0 | 2.0 | 0.00 | 0.00 | 0.00 | 31 | 1006.5 |
| 20260901044616 | 69 | 188 | 0.0 | 6.0 | 0.00 | 0.00 | 0.00 | 30 | 1006.4 |
| 20260901043054 | 69 | 181 | 2.0 | 5.0 | 0.00 | 0.00 | 0.00 | 31 | 1006.5 |
| 20260901041521 | 70 | 153 | 4.0 | 9.0 | 0.00 | 0.00 | 0.00 | 30 | 1006.5 |
| 20260901040020 | 70 | 252 | 2.0 | 9.0 | 0.00 | 0.00 | 0.00 | 31 | 1006.6 |
| 20260901034517 | 70 | 205 | 3.0 | 11.0 | 0.00 | 0.00 | 0.00 | 31 | 1006.5 |
| 20260901033015 | 70 | 195 | 3.0 | 9.0 | 0.00 | 0.00 | 0.00 | 32 | 1006.5 |
| 20260901031514 | 70 | 164 | 4.0 | 10.0 | 0.00 | 0.00 | 0.00 | 33 | 1006.5 |
| 20260901030015 | 71 | 196 | 4.0 | 10.0 | 0.00 | 0.00 | 0.00 | 32 | 1006.4 |
| 20260901024502 | 71 | 132 | 5.0 | 11.0 | 0.00 | 0.00 | 0.00 | 32 | 1006.4 |
| 20260901023100 | 72 | 227 | 6.0 | 10.0 | 0.00 | 0.00 | 0.00 | 30 | 1006.4 |
| 20260901021616 | 74 | 217 | 4.0 | 16.0 | 0.00 | 0.00 | 0.00 | 28 | 1006.3 |
| 20260901020110 | 76 | 156 | 0.0 | 5.0 | 0.00 | 0.00 | 0.00 | 26 | 1005.8 |
| 20260901014551 | 77 | 73 | 0.0 | 1.0 | 0.00 | 0.00 | 0.00 | 26 | 1005.7 |
| 20260901013047 | 78 | 138 | 0.0 | 3.0 | 0.00 | 0.00 | 0.00 | 24 | 1005.8 |
| 20260901011544 | 78 | 133 | 0.0 | 4.0 | 0.00 | 0.00 | 0.00 | 24 | 1006.0 |
| 20260901010043 | 79 | 78 | 0.0 | 10.0 | 0.00 | 0.00 | 0.00 | 23 | 1006.0 |
| 20260901004510 | 79 | 124 | 0.0 | 8.0 | 0.00 | 0.00 | 0.00 | 23 | 1006.0 |
| 20260901003007 | 78 | 118 | 2.0 | 6.0 | 0.00 | 0.00 | 0.00 | 24 | 1006.2 |
| 20260901001503 | 78 | 102 | 1.0 | 14.0 | 0.00 | 0.00 | 0.00 | 24 | 1006.3 |
| 20260901000104 | 79 | 201 | 6.0 | 13.0 | 0.00 | 0.00 | 0.00 | 22 | 1006.4 |
| 20260831234610 | 79 | 224 | 6.0 | 13.0 | 0.00 | 0.00 | 0.00 | 22 | 1006.3 |
| 20260831233100 | 80 | 234 | 8.0 | 15.0 | 0.00 | 0.00 | 0.00 | 21 | 1006.2 |
| 20260831231605 | 82 | 170 | 9.0 | 17.0 | 0.00 | 0.00 | 0.00 | 19 | 1006.1 |
| 20260831230056 | 83 | 207 | 10.0 | 15.0 | 0.00 | 0.00 | 0.00 | 17 | 1005.8 |
| 20260831224553 | 85 | 210 | 7.0 | 16.0 | 0.00 | 0.00 | 0.00 | 16 | 1005.9 |
| 20260831223052 | 85 | 218 | 3.0 | 11.0 | 0.00 | 0.00 | 0.00 | 16 | 1006.0 |
| 20260831221549 | 85 | 248 | 5.0 | 11.0 | 0.00 | 0.00 | 0.00 | 16 | 1006.2 |
| 20260831220107 | 84 | 157 | 1.0 | 11.0 | 0.00 | 0.00 | 0.00 | 17 | 1006.4 |
| 20260831214548 | 84 | 242 | 5.0 | 9.0 | 0.00 | 0.00 | 0.00 | 16 | 1006.6 |
| 20260831213044 | 85 | 214 | 2.0 | 11.0 | 0.00 | 0.00 | 0.00 | 16 | 1006.7 |
| 20260831211552 | 85 | 144 | 4.0 | 11.0 | 0.00 | 0.00 | 0.00 | 16 | 1006.9 |
| 20260831210047 | 85 | 165 | 4.0 | 12.0 | 0.00 | 0.00 | 0.00 | 16 | 1007.2 |
| 20260831204536 | 84 | 207 | 5.0 | 15.0 | 0.00 | 0.00 | 0.00 | 17 | 1007.7 |
| 20260831203032 | 84 | 193 | 7.0 | 15.0 | 0.00 | 0.00 | 0.00 | 18 | 1007.9 |
| 20260831201539 | 83 | 142 | 6.0 | 19.0 | 0.00 | 0.00 | 0.00 | 18 | 1008.2 |
| 20260831200032 | 83 | 281 | 2.0 | 12.0 | 0.00 | 0.00 | 0.00 | 18 | 1008.6 |
| 20260831194540 | 83 | 153 | 2.0 | 7.0 | 0.00 | 0.00 | 0.00 | 19 | 1009.0 |
| 20260831193026 | 81 | 54 | 1.0 | 7.0 | 0.00 | 0.00 | 0.00 | 19 | 1009.3 |
| 20260831191523 | 79 | 20 | 1.0 | 5.0 | 0.00 | 0.00 | 0.00 | 19 | 1009.7 |
| 20260831190052 | 78 | 148 | 1.0 | 6.0 | 0.00 | 0.00 | 0.00 | 20 | 1009.9 |
| 20260831184611 | 78 | 236 | 0.0 | 4.0 | 0.00 | 0.00 | 0.00 | 20 | 1010.3 |
| 20260831183059 | 74 | 222 | 0.0 | 5.0 | 0.00 | 0.00 | 0.00 | 20 | 1010.6 |
| 20260831181549 | 73 | 53 | 2.0 | 5.0 | 0.00 | 0.00 | 0.00 | 22 | 1010.7 |
| 20260831180046 | 73 | 205 | 0.0 | 4.0 | 0.00 | 0.00 | 0.00 | 23 | 1010.9 |
| 20260831174549 | 72 | 315 | 1.0 | 5.0 | 0.00 | 0.00 | 0.00 | 24 | 1011.0 |
| 20260831173056 | 70 | 118 | 0.0 | 4.0 | 0.00 | 0.00 | 0.00 | 27 | 1011.1 |
| 20260831171543 | 68 | 227 | 0.0 | 2.0 | 0.00 | 0.00 | 0.00 | 29 | 1011.2 |
| 20260831170042 | 66 | 304 | 0.0 | 3.0 | 0.00 | 0.00 | 0.00 | 30 | 1011.3 |
| 20260831164541 | 64 | 54 | 0.0 | 4.0 | 0.00 | 0.00 | 0.00 | 31 | 1011.2 |
| 20260831163042 | 62 | 330 | 2.0 | 5.0 | 0.00 | 0.00 | 0.00 | 33 | 1011.4 |
| 20260831161537 | 61 | 264 | 0.0 | 3.0 | 0.00 | 0.00 | 0.00 | 33 | 1011.5 |
| 20260831160040 | 59 | 296 | 1.0 | 3.0 | 0.00 | 0.00 | 0.00 | 37 | 1011.7 |
| 20260831154535 | 57 | 63 | 0.0 | 1.0 | 0.00 | 0.00 | 0.00 | 38 | 1012.0 |
| 20260831153031 | 54 | 318 | 0.0 | 3.0 | 0.00 | 0.00 | 0.00 | 42 | 1012.0 |
| 20260831151533 | 51 | 211 | 0.0 | 2.0 | 0.00 | 0.00 | 0.00 | 46 | 1012.1 |
| 20260831150031 | 49 | 237 | 0.0 | 1.0 | 0.00 | 0.00 | 0.00 | 51 | 1012.1 |
| 20260831144546 | 45 | 148 | 0.0 | 0.0 | 0.00 | 0.00 | 0.00 | 57 | 1012.1 |
| 20260831143100 | 44 | 135 | 0.0 | 0.0 | 0.00 | 0.00 | 0.00 | 57 | 1011.9 |
| 20260831141558 | 44 | 136 | 0.0 | 1.0 | 0.00 | 0.00 | 0.00 | 57 | 1011.8 |
| 20260831140026 | 44 | 145 | 0.0 | 0.0 | 0.00 | 0.00 | 0.00 | 55 | 1011.9 |
| 20260831134525 | 43 | 145 | 0.0 | 1.0 | 0.00 | 0.00 | 0.00 | 57 | 1011.7 |
| 20260831133055 | 43 | 69 | 0.0 | 2.0 | 0.00 | 0.00 | 0.00 | 55 | 1011.5 |
| 20260831131552 | 43 | 125 | 0.0 | 0.0 | 0.00 | 0.00 | 0.00 | 55 | 1011.5 |
| 20260831130051 | 42 | 125 | 0.0 | 1.0 | 0.00 | 0.00 | 0.00 | 57 | 1011.4 |
| 20260831124547 | 40 | 127 | 0.0 | 1.0 | 0.00 | 0.00 | 0.00 | 58 | 1011.5 |
| 20260831123043 | 42 | 105 | 0.0 | 0.0 | 0.00 | 0.00 | 0.00 | 55 | 1011.3 |
| 20260831121539 | 44 | 97 | 0.0 | 0.0 | 0.00 | 0.00 | 0.00 | 53 | 1011.0 |
| 20260831120036 | 44 | 97 | 0.0 | 0.0 | 0.00 | 0.00 | 0.00 | 54 | 1010.9 |
| 20260831114535 | 44 | 97 | 0.0 | 0.0 | 0.00 | 0.00 | 0.00 | 53 | 1011.0 |
| 20260831113033 | 44 | 97 | 0.0 | 0.0 | 0.00 | 0.00 | 0.00 | 52 | 1011.0 |
| 20260831111540 | 45 | 97 | 0.0 | 0.0 | 0.00 | 0.00 | 0.00 | 51 | 1010.9 |
| 20260831110027 | 45 | 98 | 0.0 | 0.0 | 0.00 | 0.00 | 0.00 | 52 | 1010.8 |
| 20260831104529 | 45 | 98 | 0.0 | 0.0 | 0.00 | 0.00 | 0.00 | 51 | 1010.8 |
| 20260831103023 | 45 | 98 | 0.0 | 0.0 | 0.00 | 0.00 | 0.00 | 51 | 1010.6 |
| 20260831101522 | 46 | 141 | 0.0 | 0.0 | 0.00 | 0.00 | 0.00 | 50 | 1010.7 |
| 20260831100059 | 47 | 141 | 0.0 | 0.0 | 0.00 | 0.00 | 0.00 | 51 | 1010.7 |
| 20260831094549 | 47 | 143 | 0.0 | 0.0 | 0.00 | 0.00 | 0.00 | 50 | 1010.6 |
| 20260831093043 | 47 | 143 | 0.0 | 1.0 | 0.00 | 0.00 | 0.00 | 45 | 1010.6 |
| 20260831091547 | 50 | 120 | 0.0 | 0.0 | 0.00 | 0.00 | 0.00 | 42 | 1010.4 |
| 20260831090035 | 51 | 120 | 0.0 | 0.0 | 0.00 | 0.00 | 0.00 | 41 | 1010.3 |
| 20260831084540 | 52 | 202 | 0.0 | 1.0 | 0.00 | 0.00 | 0.00 | 38 | 1010.3 |
| 20260831083025 | 54 | 58 | 3.0 | 7.0 | 0.00 | 0.00 | 0.00 | 37 | 1010.2 |
| 20260831081528 | 54 | 63 | 5.0 | 8.0 | 0.00 | 0.00 | 0.00 | 36 | 1010.2 |
| 20260831080024 | 54 | 52 | 7.0 | 10.0 | 0.00 | 0.00 | 0.00 | 36 | 1010.3 |
| 20260831074534 | 54 | 58 | 6.0 | 10.0 | 0.00 | 0.00 | 0.00 | 36 | 1010.2 |
| 20260831073047 | 55 | 47 | 7.0 | 11.0 | 0.00 | 0.00 | 0.00 | 35 | 1010.3 |
| 20260831071513 | 56 | 51 | 8.0 | 10.0 | 0.00 | 0.00 | 0.00 | 34 | 1010.3 |
| 20260831070010 | 57 | 56 | 7.0 | 11.0 | 0.00 | 0.00 | 0.00 | 33 | 1010.2 |
| 20260831064522 | 57 | 58 | 7.0 | 10.0 | 0.00 | 0.00 | 0.00 | 32 | 1010.1 |